Mackinac Island, MI

2:52 AM EDT on July 29, 2016 (GMT -0400)
Mackinac Island

Weather History for KMCD - September, 2013

Change the Weather History Date:

Friday, September 20, 2013

  Actual Average Record
Temperature  
Mean Temperature 64 °F -  
Max Temperature 70 °F 62 °F 82 °F (1998)
Min Temperature 56 °F 49 °F 34 °F (1979)
Degree Days  
Heating Degree Days 2    
Growing Degree Days 14 (Base 50)    
Moisture  
Dew Point 64 °F    
Average Humidity 96    
Maximum Humidity 100    
Minimum Humidity 86    
Precipitation  
Precipitation 0.12 in - - ()
Sea Level Pressure  
Sea Level Pressure 29.68 in    
Wind  
Wind Speed 10 mph (SW)    
Max Wind Speed 20 mph    
Max Gust Speed 28 mph    
Visibility 7 miles    
Events Rain    
Averages and records for this station are not official NWS values.
T = Trace of Precipitation, MM = Missing Value Source: NWS Daily Summary

Daily Weather History Graph

Daily Weather History Graph

Search for Another Location

Airport or City:

Trip Planner

Search our weather history database for the weather conditions in past years. The results will help you decide how hot, cold, wet, or windy it might be!

Date:

Astronomy

Sep. 20, 2013 Rise Set
Actual Time 7:23 AM EDT 7:39 PM EDT
Civil Twilight 6:53 AM EDT 8:09 PM EDT
Nautical Twilight 6:18 AM EDT 8:44 PM EDT
Astronomical Twilight 5:42 AM EDT 9:20 PM EDT
Moon 8:05 PM EDT (9/20) 8:43 AM EDT (9/20)
Length of Visible Light 13h 15m
Length of Day
12h 16m
Full, 98% of the Moon is Illuminated
Sep 20
Full
Sep 26
Last Quarter
Oct 4
New
Oct 11
First Quarter
Oct 18
Full

Hourly Weather History & Observations

Time (EDT) Temp. Dew Point Humidity Pressure Visibility Wind Dir Wind Speed Gust Speed Precip Events Conditions
12:17 AM 70.3 °F 66.2 °F 87% 29.76 in 10.0 mi SSE 11.5 mph 18.4 mph N/A   Overcast
12:36 AM 70.0 °F 65.7 °F 86% 29.76 in 10.0 mi SSE 9.2 mph 18.4 mph N/A   Overcast
12:56 AM 69.8 °F 65.5 °F 86% 29.75 in 10.0 mi SSE 8.1 mph - N/A   Overcast
1:17 AM 68.0 °F 65.7 °F 92% 29.75 in 7.0 mi SSE 9.2 mph 18.4 mph 0.05 in Rain Light Rain
1:36 AM 67.1 °F 65.5 °F 95% 29.74 in 10.0 mi SSE 6.9 mph - 0.05 in   Overcast
1:56 AM 66.7 °F 65.3 °F 95% 29.74 in 10.0 mi South 8.1 mph - 0.05 in   Scattered Clouds
2:17 AM 67.1 °F 65.5 °F 95% 29.74 in 10.0 mi South 10.4 mph 16.1 mph N/A   Scattered Clouds
2:36 AM 67.1 °F 65.5 °F 95% 29.74 in 10.0 mi South 12.7 mph 18.4 mph N/A   Mostly Cloudy
2:56 AM 68.0 °F 66.0 °F 93% 29.74 in 10.0 mi South 11.5 mph 17.3 mph N/A   Overcast
3:17 AM 68.2 °F 65.7 °F 92% 29.72 in 10.0 mi South 11.5 mph 16.1 mph N/A   Overcast
3:36 AM 67.5 °F 65.3 °F 93% 29.71 in 10.0 mi South 12.7 mph 17.3 mph N/A   Overcast
3:57 AM 67.1 °F 65.3 °F 94% 29.70 in 10.0 mi South 11.5 mph 17.3 mph N/A   Mostly Cloudy
4:17 AM 66.7 °F 65.3 °F 95% 29.69 in 10.0 mi SSE 10.4 mph 18.4 mph N/A   Scattered Clouds
4:36 AM 66.4 °F 64.8 °F 95% 29.68 in 10.0 mi SSE 10.4 mph 17.3 mph N/A   Clear
4:57 AM 65.8 °F 64.4 °F 95% 29.68 in 10.0 mi SSE 12.7 mph 19.6 mph N/A   Clear
5:17 AM 66.2 °F 64.8 °F 95% 29.68 in 10.0 mi South 10.4 mph - N/A   Clear
5:36 AM 66.7 °F 65.3 °F 95% 29.68 in 10.0 mi South 10.4 mph 17.3 mph N/A   Mostly Cloudy
5:57 AM 66.6 °F 64.9 °F 95% 29.68 in 10.0 mi South 10.4 mph 19.6 mph N/A   Scattered Clouds
6:17 AM 66.7 °F 64.9 °F 94% 29.68 in 10.0 mi South 9.2 mph 16.1 mph N/A   Clear
6:36 AM 67.1 °F 65.3 °F 94% 29.67 in 10.0 mi South 9.2 mph 16.1 mph N/A   Clear
6:57 AM 66.6 °F 64.8 °F 94% 29.66 in 10.0 mi South 9.2 mph 16.1 mph N/A   Scattered Clouds
7:17 AM 66.4 °F 64.9 °F 95% 29.66 in 10.0 mi South 10.4 mph 18.4 mph N/A   Mostly Cloudy
7:36 AM 66.0 °F 64.6 °F 95% 29.65 in 5.0 mi South 8.1 mph 16.1 mph N/A   Mostly Cloudy
7:57 AM 66.2 °F 64.9 °F 96% 29.66 in 7.0 mi South 6.9 mph - N/A   Scattered Clouds
8:17 AM 66.4 °F 65.3 °F 96% 29.66 in 7.0 mi South 9.2 mph - N/A   Scattered Clouds
8:37 AM 67.3 °F 65.8 °F 95% 29.66 in 7.0 mi South 8.1 mph - N/A   Scattered Clouds
8:57 AM 67.6 °F 66.2 °F 95% 29.66 in 7.0 mi South 9.2 mph - N/A   Mostly Cloudy
9:16 AM 68.2 °F 66.4 °F 94% 29.65 in 7.0 mi South 8.1 mph - N/A   Overcast
9:37 AM 68.4 °F 66.4 °F 93% 29.65 in 7.0 mi South 8.1 mph - N/A   Overcast
9:57 AM 68.7 °F 66.6 °F 93% 29.66 in 7.0 mi SSW 8.1 mph - N/A   Overcast
10:16 AM 68.7 °F 66.2 °F 92% 29.65 in 7.0 mi SSW 6.9 mph - N/A   Overcast
10:37 AM 66.0 °F 64.9 °F 96% 29.65 in 2.5 mi WSW 19.6 mph 27.6 mph 0.02 in Rain Light Rain
10:57 AM 66.0 °F 65.3 °F 98% 29.65 in 4.0 mi SW 12.7 mph 24.2 mph 0.03 in Rain Light Rain
11:16 AM 65.5 °F 64.8 °F 98% 29.66 in 5.0 mi SW 13.8 mph 21.9 mph N/A   Drizzle
11:37 AM 65.3 °F 64.6 °F 98% 29.66 in 7.0 mi WSW 13.8 mph 20.7 mph N/A   Overcast
11:57 AM 65.1 °F 64.6 °F 98% 29.66 in 5.0 mi SW 12.7 mph 21.9 mph N/A   Overcast
12:16 PM 64.9 °F 64.4 °F 98% 29.66 in 2.5 mi WSW 13.8 mph 21.9 mph N/A   Overcast
12:37 PM 64.8 °F 64.4 °F 99% 29.67 in 1.8 mi WSW 12.7 mph 24.2 mph N/A   Overcast
12:57 PM 64.8 °F 64.4 °F 99% 29.67 in 0.8 mi SW 13.8 mph 21.9 mph N/A   Overcast
1:16 PM 65.3 °F 65.1 °F 99% 29.66 in 1.8 mi WSW 13.8 mph 21.9 mph N/A   Overcast
1:37 PM 64.9 °F 64.6 °F 99% 29.66 in 1.2 mi SW 13.8 mph 20.7 mph N/A   Overcast
1:57 PM 65.3 °F 64.8 °F 98% 29.65 in 1.2 mi SW 12.7 mph 20.7 mph N/A   Overcast
2:17 PM 65.1 °F 64.6 °F 98% 29.65 in 1.8 mi SW 11.5 mph 17.3 mph N/A   Overcast
2:37 PM 64.8 °F 64.4 °F 99% 29.65 in 1.5 mi WSW 12.7 mph 20.7 mph N/A   Overcast
2:57 PM 64.8 °F 64.6 °F 99% 29.64 in 1.2 mi WSW 12.7 mph 19.6 mph N/A   Overcast
3:17 PM 64.8 °F 64.6 °F 99% 29.64 in 1.5 mi SW 10.4 mph 18.4 mph N/A   Overcast
3:37 PM 64.8 °F 64.6 °F 99% 29.64 in 1.8 mi SW 12.7 mph 18.4 mph N/A   Overcast
3:57 PM 64.4 °F 64.4 °F 100% 29.64 in 1.8 mi WSW 12.7 mph 17.3 mph N/A   Overcast
4:17 PM 64.6 °F 64.4 °F 99% 29.64 in 1.8 mi SW 11.5 mph 19.6 mph N/A   Overcast
4:37 PM 64.4 °F 64.4 °F 100% 29.65 in 1.8 mi SW 11.5 mph 19.6 mph N/A   Overcast
4:57 PM 64.4 °F 64.4 °F 100% 29.64 in 1.5 mi SW 12.7 mph 19.6 mph N/A   Overcast
5:17 PM 64.0 °F 63.9 °F 99% 29.65 in 1.2 mi WSW 10.4 mph 19.6 mph N/A   Overcast
5:37 PM 64.0 °F 63.9 °F 99% 29.65 in 1.2 mi West 19.6 mph - N/A   Overcast
5:57 PM 63.5 °F 63.1 °F 99% 29.65 in 5.0 mi WNW 5.8 mph - 0.04 in Rain Light Rain
6:17 PM 63.5 °F 63.0 °F 98% 29.65 in 7.0 mi West 4.6 mph - N/A Rain Light Rain
6:37 PM 63.5 °F 62.8 °F 97% 29.66 in 7.0 mi West 6.9 mph - N/A   Overcast
6:57 PM 63.5 °F 62.8 °F 97% 29.66 in 10.0 mi West 4.6 mph - N/A   Overcast
7:17 PM 62.4 °F 61.9 °F 98% 29.66 in 5.0 mi West 5.8 mph - N/A   Overcast
7:37 PM 62.6 °F 62.1 °F 98% 29.66 in 10.0 mi West 6.9 mph - N/A   Overcast
7:57 PM 62.4 °F 61.7 °F 97% 29.67 in 10.0 mi NW 5.8 mph - N/A   Overcast
8:17 PM 61.9 °F 61.2 °F 97% 29.68 in 10.0 mi WNW 6.9 mph - N/A   Overcast
8:37 PM 61.7 °F 60.8 °F 97% 29.68 in 10.0 mi NW 8.1 mph - N/A   Overcast
8:57 PM 61.2 °F 60.1 °F 96% 29.69 in 10.0 mi NW 6.9 mph - N/A   Overcast
9:17 PM 60.4 °F 59.4 °F 96% 29.69 in 10.0 mi NNW 6.9 mph - N/A   Overcast
9:37 PM 60.3 °F 59.4 °F 97% 29.69 in 10.0 mi NNW 6.9 mph - N/A   Overcast
9:57 PM 59.9 °F 58.8 °F 96% 29.70 in 10.0 mi NNW 8.1 mph - N/A   Overcast
10:17 PM 59.0 °F 57.0 °F 93% 29.70 in 10.0 mi NNW 8.1 mph - N/A   Overcast
10:37 PM 58.1 °F 56.1 °F 93% 29.70 in 10.0 mi NNW 6.9 mph 17.3 mph N/A   Mostly Cloudy
10:57 PM 57.6 °F 55.9 °F 94% 29.70 in 10.0 mi NNW 8.1 mph - N/A   Overcast
11:17 PM 57.4 °F 55.6 °F 94% 29.70 in 10.0 mi NNW 10.4 mph - N/A   Overcast
11:37 PM 57.2 °F 55.0 °F 92% 29.71 in 10.0 mi NW 8.1 mph - N/A   Overcast
11:56 PM 56.3 °F 54.5 °F 94% 29.70 in 10.0 mi NW 6.9 mph - N/A   Overcast